Weather History for PAAQ - November, 2012

Change the Weather History Date:

Thursday, November 15, 2012

  Actual Average Record
Temperature  
Mean Temperature 20 °F -  
Max Temperature 25 °F 26 °F 46 °F (1979)
Min Temperature 16 °F 10 °F -8 °F (1973)
Degree Days  
Heating Degree Days 44    
Moisture  
Dew Point 18 °F    
Average Humidity 92    
Maximum Humidity 100    
Minimum Humidity 86    
Precipitation  
Precipitation 0.00 in - - ()
Sea Level Pressure  
Sea Level Pressure 29.50 in    
Wind  
Wind Speed 0 mph (SE)    
Max Wind Speed 5 mph    
Max Gust Speed -    
Visibility 9 miles    
Events      
Averages and records for this station are not official NWS values.
T = Trace of Precipitation, MM = Missing Value Source: NWS Daily Summary

Daily Weather History Graph

Daily Weather History Graph

Search for Another Location

Airport or City:

Trip Planner

Search our weather history database for the weather conditions in past years. The results will help you decide how hot, cold, wet, or windy it might be!

Date:

Astronomy

Nov. 15, 2012 Rise Set
Actual Time 9:06 AM AKST 4:14 PM AKST
Civil Twilight 8:13 AM AKST 5:07 PM AKST
Nautical Twilight 7:18 AM AKST 6:02 PM AKST
Astronomical Twilight 6:27 AM AKST 6:53 PM AKST
Moon 11:39 AM AKST (11/15) 5:51 PM AKST (11/15)
Length of Visible Light 8h 53m
Length of Day
7h 07m
Waxing Crescent, 6% of the Moon is Illuminated
Nov 15
Waxing Crescent
Nov 20
First Quarter
Nov 28
Full
Dec 6
Last Quarter
Dec 12
New

Hourly Weather History & Observations

Time (AKST) Temp. Windchill Dew Point Humidity Pressure Visibility Wind Dir Wind Speed Gust Speed Precip Events Conditions
12:53 AM 19.0 °F - 16.0 °F 88% 29.37 in 10.0 mi Calm Calm - N/A   Clear
1:43 AM 17.6 °F - 15.8 °F 93% 29.36 in 10.0 mi Calm Calm - N/A   Partly Cloudy
1:53 AM 17.1 °F - 14.0 °F 88% 29.37 in 10.0 mi Calm Calm - N/A   Partly Cloudy
2:53 AM 17.1 °F - 15.1 °F 92% 29.38 in 10.0 mi Calm Calm - N/A   Clear
3:53 AM 17.1 °F - 14.0 °F 88% 29.40 in 10.0 mi Calm Calm - N/A   Clear
4:53 AM 16.0 °F - 12.9 °F 88% 29.40 in 10.0 mi Calm Calm - N/A   Clear
5:53 AM 16.0 °F - 14.0 °F 92% 29.41 in 10.0 mi Calm Calm - N/A   Scattered Clouds
6:53 AM 17.1 °F - 14.0 °F 88% 29.43 in 10.0 mi Calm Calm - N/A   Overcast
7:53 AM 16.0 °F - 12.9 °F 88% 29.44 in 10.0 mi Calm Calm - N/A   Scattered Clouds
8:53 AM 18.0 °F - 16.0 °F 92% 29.45 in 10.0 mi Calm Calm - N/A   Overcast
9:53 AM 19.9 °F - 18.0 °F 92% 29.45 in 10.0 mi Calm Calm - N/A   Mostly Cloudy
10:53 AM 23.0 °F - 21.0 °F 92% 29.47 in 10.0 mi Calm Calm - N/A   Mostly Cloudy
11:53 AM 23.0 °F - 21.9 °F 96% 29.48 in 10.0 mi Calm Calm - N/A   Mostly Cloudy
12:53 PM 24.1 °F 18.2 °F 21.9 °F 91% 29.48 in 9.0 mi South 4.6 mph - N/A   Scattered Clouds
1:53 PM 25.0 °F - 21.9 °F 88% 29.48 in 10.0 mi Calm Calm - N/A   Mostly Cloudy
2:53 PM 24.1 °F - 21.9 °F 91% 29.49 in 10.0 mi Calm Calm - N/A   Mostly Cloudy
3:53 PM 21.9 °F 17.2 °F 19.9 °F 92% 29.49 in 10.0 mi SSE 3.5 mph - N/A   Mostly Cloudy
4:53 PM 21.9 °F - 19.9 °F 92% 29.50 in 10.0 mi Calm Calm - N/A   Overcast
5:53 PM 21.9 °F - 19.9 °F 92% 29.52 in 10.0 mi Calm Calm - N/A   Overcast
6:53 PM 21.0 °F - 19.0 °F 92% 29.53 in 8.0 mi Calm Calm - N/A   Mostly Cloudy
7:18 PM 23.0 °F - 19.4 °F 86% 29.52 in 7.0 mi Calm Calm - N/A   Overcast
7:28 PM 21.2 °F - 21.2 °F 100% 29.52 in 8.0 mi Calm Calm - N/A   Overcast
7:53 PM 23.0 °F - 19.9 °F 88% 29.55 in 9.0 mi Calm Calm - N/A   Overcast
8:21 PM 21.2 °F - 19.4 °F 93% 29.54 in 7.0 mi Calm Calm - N/A   Scattered Clouds
8:33 PM 21.2 °F - 19.4 °F 93% 29.55 in 7.0 mi Calm Calm - N/A   Mostly Cloudy
8:53 PM 21.9 °F - 19.0 °F 89% 29.57 in 6.0 mi Calm Calm - N/A   Mostly Cloudy
9:14 PM 21.2 °F - 19.4 °F 93% 29.56 in 7.0 mi Calm Calm - N/A   Mostly Cloudy
9:53 PM 21.0 °F - 19.0 °F 92% 29.59 in 8.0 mi Calm Calm - N/A   Partly Cloudy
10:24 PM 21.2 °F 16.4 °F 19.4 °F 93% 29.57 in 8.0 mi ENE 3.5 mph - N/A   Mostly Cloudy
10:36 PM 19.4 °F - 17.6 °F 93% 29.58 in 9.0 mi Calm Calm - N/A   Mostly Cloudy
10:53 PM 19.0 °F - 19.0 °F 100% 29.60 in 8.0 mi Calm Calm - N/A   Mostly Cloudy
11:06 PM 19.4 °F - 17.6 °F 93% 29.58 in 9.0 mi Calm Calm - N/A   Mostly Cloudy
11:20 PM 19.4 °F - 17.6 °F 93% 29.58 in 10.0 mi Calm Calm - N/A   Overcast
11:37 PM 19.4 °F - 17.6 °F 93% 29.59 in 9.0 mi Calm Calm - N/A   Overcast
11:53 PM 19.9 °F - 18.0 °F 92% 29.60 in 9.0 mi Calm Calm - N/A   Overcast